• In Uzbekistan
  • List of Countries
  • For 7 days
  • Water Temperature
  • Satellite Maps
  • Weather Map
  • Weather Widgets
  • user-avatar
    Login

    Hourly Weather Ballycastle

    Today, 11 December, Monday

    Time Temperature Precipitation Wind Pressure Humidity
    00:00 -1°C° 0 mm 3 mps 736 mmHg 82%
    01:00 0°C° 0.1 mm 3 mps 736 mmHg 83%
    02:00 -1°C° 0.1 mm 4 mps 736 mmHg 84%
    03:00 0°C° 0.1 mm 4 mps 737 mmHg 85%
    04:00 0°C° 0.3 mm 5 mps 737 mmHg 84%
    05:00 +1°C° 0.3 mm 5 mps 737 mmHg 83%
    06:00 +1°C° 0.3 mm 6 mps 738 mmHg 82%
    07:00 0°C° 0.2 mm 7 mps 738 mmHg 81%
    08:00 +2°C° 0.2 mm 7 mps 739 mmHg 81%
    09:00 +1°C° 0.2 mm 8 mps 740 mmHg 80%
    10:00 +1°C° 0.2 mm 8 mps 740 mmHg 80%
    11:00 +2°C° 0.2 mm 8 mps 741 mmHg 80%
    12:00 +2°C° 0.2 mm 8 mps 741 mmHg 80%
    13:00 +2°C° 0.1 mm 8 mps 742 mmHg 80%
    14:00 +2°C° 0.1 mm 8 mps 743 mmHg 80%
    15:00 +2°C° 0.1 mm 8 mps 743 mmHg 80%
    16:00 +1°C° 0.1 mm 8 mps 744 mmHg 80%
    17:00 +1°C° 0.1 mm 8 mps 744 mmHg 81%
    18:00 +1°C° 0.1 mm 8 mps 745 mmHg 81%
    19:00 +2°C° 0.1 mm 7 mps 746 mmHg 82%
    20:00 +2°C° 0.1 mm 7 mps 746 mmHg 82%
    21:00 +2°C° 0.1 mm 6 mps 747 mmHg 83%
    22:00 +2°C° 0.1 mm 6 mps 747 mmHg 84%
    23:00 +2°C° 0.1 mm 6 mps 747 mmHg 85%

    Tomorrow, 12 December, Tuesday

    Time Temperature Precipitation Wind Pressure Humidity
    00:00 +2°C° 0.1 mm 5 mps 748 mmHg 85%
    01:00 +2°C° 0 mm 5 mps 748 mmHg 85%
    02:00 +1°C° 0 mm 4 mps 748 mmHg 85%
    03:00 +2°C° 0 mm 3 mps 748 mmHg 85%
    04:00 +2°C° 0 mm 3 mps 748 mmHg 86%
    05:00 +3°C° 0 mm 2 mps 749 mmHg 87%
    06:00 +3°C° 0 mm 2 mps 749 mmHg 87%
    07:00 +3°C° 0 mm 2 mps 749 mmHg 89%
    08:00 +2°C° 0 mm 3 mps 749 mmHg 90%
    09:00 +2°C° 0 mm 3 mps 749 mmHg 91%
    10:00 +1°C° 0 mm 4 mps 749 mmHg 90%
    11:00 +1°C° 0 mm 5 mps 748 mmHg 89%
    12:00 +2°C° 0 mm 5 mps 748 mmHg 87%
    13:00 +2°C° 0.4 mm 6 mps 747 mmHg 88%
    14:00 +2°C° 0.4 mm 7 mps 747 mmHg 88%
    15:00 +2°C° 0.4 mm 7 mps 746 mmHg 89%
    16:00 +1°C° 0.5 mm 8 mps 746 mmHg 90%
    17:00 +1°C° 0.5 mm 8 mps 745 mmHg 91%
    18:00 +1°C° 0.5 mm 8 mps 745 mmHg 93%
    19:00 +1°C° 0.1 mm 8 mps 745 mmHg 91%
    20:00 +2°C° 0.1 mm 8 mps 745 mmHg 89%
    21:00 +2°C° 0.1 mm 8 mps 745 mmHg 88%
    22:00 +3°C° 0.1 mm 7 mps 745 mmHg 87%
    23:00 +2°C° 0.1 mm 7 mps 745 mmHg 87%

    Day after tomorrow, 13 December, Wednesday

    Time Temperature Precipitation Wind Pressure Humidity
    00:00 +2°C° 0.1 mm 7 mps 745 mmHg 87%
    01:00 +2°C° 0.3 mm 7 mps 744 mmHg 88%
    02:00 +1°C° 0.3 mm 8 mps 744 mmHg 89%
    03:00 +2°C° 0.3 mm 8 mps 744 mmHg 90%
    04:00 +1°C° 0.1 mm 8 mps 743 mmHg 90%
    05:00 +2°C° 0.1 mm 7 mps 743 mmHg 89%
    06:00 +2°C° 0.1 mm 7 mps 742 mmHg 89%
    07:00 +1°C° 0.8 mm 9 mps 741 mmHg 85%
    08:00 +1°C° 0.8 mm 10 mps 741 mmHg 82%
    09:00 +2°C° 0.8 mm 12 mps 740 mmHg 78%
    10:00 0°C° 0.4 mm 12 mps 740 mmHg 77%
    11:00 0°C° 0.4 mm 12 mps 740 mmHg 75%
    12:00 0°C° 0.4 mm 12 mps 740 mmHg 74%
    13:00 +1°C° 0.4 mm 11 mps 740 mmHg 74%
    14:00 -1°C° 0.4 mm 11 mps 740 mmHg 73%
    15:00 -1°C° 0.4 mm 11 mps 740 mmHg 73%
    16:00 -1°C° 0.3 mm 11 mps 740 mmHg 73%
    17:00 -1°C° 0.3 mm 11 mps 740 mmHg 73%
    18:00 -2°C° 0.3 mm 10 mps 740 mmHg 73%
    19:00 -2°C° 0.3 mm 10 mps 740 mmHg 74%
    20:00 -2°C° 0.3 mm 10 mps 740 mmHg 75%
    21:00 -2°C° 0.3 mm 10 mps 740 mmHg 75%
    22:00 -1°C° 0.3 mm 9 mps 740 mmHg 77%
    23:00 -1°C° 0.3 mm 9 mps 739 mmHg 79%

    14 December, Thursday

    Time Temperature Precipitation Wind Pressure Humidity
    00:00 -1°C° 0.3 mm 9 mps 739 mmHg 81%
    01:00 -1°C° 0.3 mm 8 mps 738 mmHg 81%
    02:00 -1°C° 0.3 mm 8 mps 738 mmHg 82%
    03:00 -1°C° 0.3 mm 8 mps 737 mmHg 82%
    04:00 -2°C° 0.2 mm 7 mps 737 mmHg 82%
    05:00 -2°C° 0.2 mm 7 mps 737 mmHg 81%
    06:00 -2°C° 0.2 mm 7 mps 737 mmHg 81%
    07:00 -2°C° 0.1 mm 6 mps 737 mmHg 83%
    08:00 -2°C° 0.1 mm 6 mps 737 mmHg 85%
    09:00 -1°C° 0.1 mm 5 mps 737 mmHg 87%
    10:00 0°C° 0.1 mm 5 mps 737 mmHg 87%
    11:00 0°C° 0.1 mm 5 mps 737 mmHg 88%
    12:00 +1°C° 0.1 mm 5 mps 737 mmHg 88%
    13:00 +1°C° 0.4 mm 6 mps 737 mmHg 86%
    14:00 +2°C° 0.4 mm 6 mps 737 mmHg 85%
    15:00 +2°C° 0.4 mm 6 mps 737 mmHg 83%
    16:00 +1°C° 0.2 mm 6 mps 737 mmHg 84%
    17:00 0°C° 0.2 mm 5 mps 737 mmHg 86%
    18:00 0°C° 0.2 mm 4 mps 737 mmHg 87%
    19:00 -1°C° 0.3 mm 4 mps 738 mmHg 88%
    20:00 -1°C° 0.3 mm 4 mps 739 mmHg 89%
    21:00 0°C° 0.3 mm 3 mps 740 mmHg 91%
    22:00 0°C° 0.1 mm 4 mps 741 mmHg 87%
    23:00 +1°C° 0.1 mm 6 mps 742 mmHg 83%

    15 December, Friday

    Time Temperature Precipitation Wind Pressure Humidity
    00:00 +2°C° 0.1 mm 7 mps 743 mmHg 79%
    01:00 +1°C° 0.1 mm 8 mps 744 mmHg 79%
    02:00 +1°C° 0.1 mm 8 mps 745 mmHg 79%
    03:00 +1°C° 0.1 mm 8 mps 745 mmHg 79%
    04:00 +1°C° 0.1 mm 9 mps 746 mmHg 78%
    05:00 +1°C° 0.1 mm 9 mps 747 mmHg 77%
    06:00 +2°C° 0.1 mm 10 mps 748 mmHg 77%
    07:00 +1°C° 0 mm 9 mps 749 mmHg 76%
    08:00 +1°C° 0 mm 9 mps 750 mmHg 75%
    09:00 +1°C° 0 mm 9 mps 751 mmHg 74%
    10:00 +1°C° 0 mm 8 mps 752 mmHg 74%
    11:00 +2°C° 0 mm 8 mps 753 mmHg 75%
    12:00 +3°C° 0 mm 7 mps 754 mmHg 75%
    13:00 +3°C° 0 mm 7 mps 754 mmHg 76%
    14:00 +3°C° 0 mm 7 mps 755 mmHg 76%
    15:00 +2°C° 0 mm 6 mps 755 mmHg 77%
    16:00 +2°C° 0 mm 6 mps 755 mmHg 78%
    17:00 +1°C° 0 mm 6 mps 756 mmHg 79%
    18:00 +1°C° 0 mm 6 mps 756 mmHg 80%
    19:00 +1°C° 0.1 mm 5 mps 756 mmHg 81%
    20:00 +1°C° 0.1 mm 5 mps 757 mmHg 82%
    21:00 +1°C° 0.1 mm 5 mps 757 mmHg 82%
    22:00 0°C° 0.1 mm 5 mps 757 mmHg 84%
    23:00 0°C° 0.1 mm 5 mps 757 mmHg 85%

    16 December, Saturday

    Time Temperature Precipitation Wind Pressure Humidity
    00:00 0°C° 0.1 mm 4 mps 757 mmHg 86%
    01:00 0°C° 0.2 mm 4 mps 757 mmHg 87%
    02:00 0°C° 0.2 mm 5 mps 757 mmHg 88%
    03:00 0°C° 0.2 mm 5 mps 757 mmHg 89%
    04:00 0°C° 0.2 mm 5 mps 756 mmHg 90%
    05:00 0°C° 0.2 mm 5 mps 756 mmHg 90%
    06:00 +1°C° 0.2 mm 5 mps 756 mmHg 91%
    07:00 +1°C° 0.2 mm 5 mps 756 mmHg 91%
    08:00 +1°C° 0.2 mm 5 mps 756 mmHg 91%
    09:00 +1°C° 0.2 mm 6 mps 755 mmHg 90%
    10:00 +1°C° 0.2 mm 6 mps 755 mmHg 89%
    11:00 +2°C° 0.2 mm 6 mps 754 mmHg 88%
    12:00 +2°C° 0.2 mm 7 mps 754 mmHg 87%
    13:00 +2°C° 0.3 mm 7 mps 753 mmHg 88%
    14:00 +3°C° 0.3 mm 7 mps 752 mmHg 88%
    15:00 +3°C° 0.3 mm 7 mps 750 mmHg 89%
    16:00 +3°C° 1.3 mm 7 mps 750 mmHg 90%
    17:00 +2°C° 1.3 mm 8 mps 749 mmHg 91%
    18:00 +2°C° 1.3 mm 8 mps 748 mmHg 92%
    19:00 +4°C° 0.2 mm 8 mps 748 mmHg 90%
    20:00 +4°C° 0.2 mm 8 mps 747 mmHg 89%
    21:00 +4°C° 0.2 mm 8 mps 747 mmHg 87%
    22:00 +4°C° 0.1 mm 7 mps 747 mmHg 89%
    23:00 +4°C° 0.1 mm 6 mps 748 mmHg 91%
    Show more